Photometre #848[NE_1.6_Dp] Watnall_MO AOT

File : 20220922_848.hum

22/09/2022,06:49:46,TEMP=10.5,BA=5.68,STAT.A,ExtBa=12.30
22/09/2022,06:54:04,TEMP=10.8,BA=5.52,STAT.A,ExtBa=12.30
22/09/2022,06:57:23,TEMP=11.0,BA=5.52,STAT.D,ExtBa=12.30
22/09/2022,06:59:21,TEMP=11.4,BA=5.52,STAT.A,ExtBa=12.20
22/09/2022,07:03:23,TEMP=11.3,BA=5.52,STAT.D,ExtBa=12.30
22/09/2022,07:05:21,TEMP=11.8,BA=5.52,STAT.A,ExtBa=12.20
22/09/2022,07:09:23,TEMP=11.7,BA=5.52,STAT.D,ExtBa=12.20
22/09/2022,07:12:23,TEMP=11.9,BA=5.52,STAT.A,ExtBa=12.20
22/09/2022,07:15:23,TEMP=12.0,BA=5.52,STAT.D,ExtBa=12.20
22/09/2022,07:18:23,TEMP=12.1,BA=5.52,STAT.D,ExtBa=12.20
22/09/2022,07:21:22,TEMP=12.2,BA=5.52,STAT.A,ExtBa=12.20
22/09/2022,07:24:23,TEMP=12.2,BA=5.52,STAT.D,ExtBa=12.20
22/09/2022,07:27:23,TEMP=12.3,BA=5.52,STAT.D,ExtBa=12.20
22/09/2022,07:30:23,TEMP=12.4,BA=5.68,STAT.D,ExtBa=12.20
22/09/2022,07:32:47,TEMP=12.6,BA=5.68,STAT.B,ExtBa=12.20
22/09/2022,07:42:04,TEMP=13.2,BA=5.48,STAT.A,ExtBa=12.10
22/09/2022,07:44:41,TEMP=13.2,BA=5.48,STAT.A,ExtBa=12.20
22/09/2022,07:48:23,TEMP=13.2,BA=5.48,STAT.D,ExtBa=12.20
22/09/2022,07:51:23,TEMP=13.4,BA=5.48,STAT.D,ExtBa=12.20
22/09/2022,07:53:24,TEMP=13.7,BA=5.48,STAT.A,ExtBa=12.20
22/09/2022,07:57:23,TEMP=13.5,BA=5.48,STAT.D,ExtBa=12.20
22/09/2022,07:59:31,TEMP=13.8,BA=5.48,STAT.A,ExtBa=12.20
22/09/2022,08:03:23,TEMP=13.6,BA=5.48,STAT.D,ExtBa=12.20
22/09/2022,08:06:23,TEMP=13.8,BA=5.48,STAT.D,ExtBa=12.20
22/09/2022,08:08:48,TEMP=14.0,BA=5.48,STAT.C,ExtBa=12.20
22/09/2022,08:34:03,TEMP=15.5,BA=5.48,STAT.A,ExtBa=12.10
22/09/2022,08:37:20,TEMP=15.2,BA=5.48,STAT.A,ExtBa=12.10
22/09/2022,08:42:23,TEMP=15.1,BA=5.64,STAT.D,ExtBa=12.20
22/09/2022,08:45:23,TEMP=15.2,BA=5.64,STAT.D,ExtBa=12.20
22/09/2022,08:48:23,TEMP=15.2,BA=5.64,STAT.D,ExtBa=12.20
22/09/2022,08:50:22,TEMP=15.5,BA=5.48,STAT.A,ExtBa=12.10
22/09/2022,08:54:23,TEMP=15.1,BA=5.48,STAT.D,ExtBa=12.20
22/09/2022,08:57:23,TEMP=15.2,BA=5.48,STAT.D,ExtBa=12.20
22/09/2022,08:59:23,TEMP=15.4,BA=5.48,STAT.F,ExtBa=12.10
22/09/2022,09:23:49,TEMP=16.5,BA=5.44,STAT.D,ExtBa=12.10
22/09/2022,09:27:23,TEMP=16.2,BA=5.44,STAT.D,ExtBa=12.10
22/09/2022,09:29:22,TEMP=16.6,BA=5.44,STAT.D,ExtBa=12.10
22/09/2022,09:33:23,TEMP=16.4,BA=5.44,STAT.D,ExtBa=12.20
22/09/2022,09:36:24,TEMP=16.6,BA=5.44,STAT.D,ExtBa=12.10
22/09/2022,09:39:23,TEMP=16.6,BA=5.44,STAT.D,ExtBa=12.10
22/09/2022,09:42:23,TEMP=16.7,BA=5.44,STAT.D,ExtBa=12.10
22/09/2022,09:44:21,TEMP=17.1,BA=5.44,STAT.D,ExtBa=12.10
22/09/2022,09:48:24,TEMP=16.9,BA=5.44,STAT.D,ExtBa=12.10
22/09/2022,09:51:23,TEMP=17.2,BA=5.48,STAT.D,ExtBa=12.10
22/09/2022,09:54:24,TEMP=17.4,BA=5.48,STAT.D,ExtBa=12.10
22/09/2022,09:57:24,TEMP=17.5,BA=5.48,STAT.D,ExtBa=12.10
22/09/2022,09:59:24,TEMP=17.8,BA=5.48,STAT.F,ExtBa=12.10
22/09/2022,10:26:16,TEMP=18.7,BA=5.44,STAT.D,ExtBa=12.10
22/09/2022,10:28:29,TEMP=18.9,BA=5.44,STAT.D,ExtBa=12.10
22/09/2022,10:39:24,TEMP=18.1,BA=5.44,STAT.D,ExtBa=12.20
22/09/2022,10:43:29,TEMP=18.1,BA=5.48,STAT.D,ExtBa=12.20
22/09/2022,10:54:24,TEMP=17.7,BA=5.68,STAT.D,ExtBa=12.20
22/09/2022,10:58:30,TEMP=17.9,BA=5.68,STAT.F,ExtBa=12.20
22/09/2022,11:24:14,TEMP=19.4,BA=5.44,STAT.D,ExtBa=12.10
22/09/2022,11:28:29,TEMP=19.0,BA=5.44,STAT.D,ExtBa=12.10
22/09/2022,11:33:24,TEMP=19.2,BA=5.44,STAT.D,ExtBa=12.20
22/09/2022,11:36:24,TEMP=19.5,BA=5.44,STAT.D,ExtBa=12.10
22/09/2022,11:39:24,TEMP=19.5,BA=5.44,STAT.D,ExtBa=12.10
22/09/2022,11:42:24,TEMP=19.4,BA=5.44,STAT.D,ExtBa=12.10
22/09/2022,11:44:21,TEMP=19.6,BA=5.44,STAT.D,ExtBa=12.10
22/09/2022,11:48:24,TEMP=19.3,BA=5.44,STAT.D,ExtBa=12.10
22/09/2022,11:58:30,TEMP=18.7,BA=5.48,STAT.F,ExtBa=12.20
22/09/2022,12:09:24,TEMP=19.3,BA=5.44,STAT.D,ExtBa=12.20
22/09/2022,12:12:24,TEMP=19.8,BA=5.48,STAT.D,ExtBa=12.20
22/09/2022,12:14:21,TEMP=20.2,BA=5.48,STAT.D,ExtBa=12.20
22/09/2022,12:18:24,TEMP=20.1,BA=5.48,STAT.D,ExtBa=12.10
22/09/2022,12:28:29,TEMP=20.0,BA=5.44,STAT.D,ExtBa=12.20
22/09/2022,12:39:24,TEMP=19.6,BA=5.44,STAT.D,ExtBa=12.20
22/09/2022,12:43:29,TEMP=19.5,BA=5.44,STAT.D,ExtBa=12.20
22/09/2022,12:49:54,TEMP=19.5,BA=5.44,STAT.D,ExtBa=12.20
22/09/2022,12:58:30,TEMP=19.4,BA=5.44,STAT.F,ExtBa=12.20
22/09/2022,13:09:24,TEMP=19.2,BA=5.44,STAT.D,ExtBa=12.20
22/09/2022,13:13:29,TEMP=19.3,BA=5.44,STAT.D,ExtBa=12.20
22/09/2022,13:27:24,TEMP=19.6,BA=5.64,STAT.D,ExtBa=12.20
22/09/2022,13:29:21,TEMP=20.0,BA=5.64,STAT.D,ExtBa=12.20
22/09/2022,13:42:24,TEMP=19.7,BA=5.64,STAT.D,ExtBa=12.20
22/09/2022,13:44:24,TEMP=20.2,BA=5.64,STAT.D,ExtBa=12.20
22/09/2022,13:57:23,TEMP=20.0,BA=5.64,STAT.D,ExtBa=12.20
22/09/2022,13:59:24,TEMP=20.5,BA=5.64,STAT.F,ExtBa=12.20
22/09/2022,14:12:24,TEMP=20.0,BA=5.64,STAT.D,ExtBa=12.20
22/09/2022,14:14:25,TEMP=20.4,BA=5.64,STAT.D,ExtBa=12.20
22/09/2022,14:27:23,TEMP=19.7,BA=5.64,STAT.D,ExtBa=12.20
22/09/2022,14:29:22,TEMP=20.2,BA=5.64,STAT.D,ExtBa=12.20
22/09/2022,14:42:23,TEMP=19.8,BA=5.64,STAT.D,ExtBa=12.20
22/09/2022,14:44:20,TEMP=20.2,BA=5.64,STAT.D,ExtBa=12.20
22/09/2022,14:57:23,TEMP=19.6,BA=5.64,STAT.D,ExtBa=12.20
22/09/2022,14:59:22,TEMP=19.9,BA=5.64,STAT.F,ExtBa=12.20
22/09/2022,15:08:05,TEMP=19.3,BA=5.44,STAT.A,ExtBa=12.20
22/09/2022,15:21:23,TEMP=18.8,BA=5.64,STAT.D,ExtBa=12.20
22/09/2022,15:24:10,TEMP=18.9,BA=5.64,STAT.A,ExtBa=12.20
22/09/2022,15:36:23,TEMP=18.4,BA=5.64,STAT.D,ExtBa=12.20
22/09/2022,15:38:15,TEMP=18.8,BA=5.64,STAT.A,ExtBa=12.20
22/09/2022,15:48:11,TEMP=18.2,BA=5.44,STAT.C,ExtBa=12.20
22/09/2022,15:57:29,TEMP=17.4,BA=5.52,STAT.A,ExtBa=12.20
22/09/2022,16:05:30,TEMP=17.0,BA=5.52,STAT.A,ExtBa=12.20
22/09/2022,16:12:30,TEMP=16.2,BA=5.68,STAT.A,ExtBa=12.20
22/09/2022,16:18:41,TEMP=15.8,BA=5.68,STAT.A,ExtBa=12.20
22/09/2022,16:24:11,TEMP=15.3,BA=5.44,STAT.B,ExtBa=12.20
22/09/2022,16:35:36,TEMP=14.7,BA=5.68,STAT.A,ExtBa=12.20
22/09/2022,16:44:36,TEMP=14.7,BA=5.44,STAT.A,ExtBa=12.20
22/09/2022,16:51:53,TEMP=14.8,BA=5.68,STAT.A,ExtBa=12.20
22/09/2022,16:57:51,TEMP=14.9,BA=5.68,STAT.A,ExtBa=12.20
22/09/2022,17:07:12,TEMP=15.1,BA=5.56,STAT.A,ExtBa=12.20